[[{"header":{"parameterUnit":"m.s-1","parameterCategory":1,"la1":30.2991,"la2":30.254,"lo1":-89.0895,"lo2":-89.0444,"dy":0.0017,"dx":0.0017,"nx":28,"ny":28,"refTime":"2025-07-27T21:00:00:Z","depth":0,"parameterNumber":2,"parameterNumberName":"U-component_of_WINDS"},"data":[0,0,0,0,0,0,0,0,0,0,0,0,0,0,0,0,0,0,0,0,0,0,0,0,0,0,0,0,0,0,0,0,0,0,0,0,0,0,0,0,0,0,0,0,0,0,0,0,0,0,0,0,0,0,0,0,0,0,4.5892,4.5893,0,4.5975,4.5976,4.5977,4.5877,4.5873,4.5869,4.5866,4.5953,4.5958,4.5964,0,0,0,0,0,0,0,0,0,0,0,0,0,4.5647,4.5652,4.5892,4.5893,4.5894,4.5975,4.5976,4.5977,4.5877,4.5873,4.5868,4.5864,4.5951,4.5958,4.5964,0,0,0,0,0,0,0,0,0,0,0,0,0,4.5744,4.5653,4.5891,4.5854,4.5851,4.5975,4.5976,4.5978,4.5878,4.5873,4.5867,4.5862,4.5948,4.5957,4.5965,4.6131,0,0,4.5992,4.5996,0,0,0,0,0,0,0,0,4.5739,4.5753,4.5858,4.5856,4.5854,4.591,4.5922,4.6029,4.588,4.5868,4.5865,4.5859,4.5943,4.5952,4.598,4.6135,4.6139,4.5993,4.5998,4.6002,4.6004,0,0,0,0,0,0,0,4.5732,4.5749,4.5925,4.586,4.5857,4.5833,4.584,4.5941,4.5936,4.5868,4.5861,4.5873,4.5941,4.5972,4.5981,4.614,4.5993,4.6,4.6006,4.6009,4.6436,4.6442,0,0,0,0,0,0,4.5729,4.5744,4.5922,4.5927,4.5781,4.5842,4.585,4.5897,4.5934,4.5935,4.5877,4.5868,4.5959,4.5971,4.5984,4.6181,4.6002,4.601,4.6015,4.643,4.6438,4.6444,0,0,0,0,0,0,4.5725,4.5746,4.5919,4.5834,4.5854,4.5852,4.5906,4.5902,4.5933,4.5941,4.594,4.591,4.5956,4.5971,4.6095,4.6183,4.6014,4.6022,4.6423,4.6433,4.6441,4.6578,0,0,0,0,0,0,4.5718,4.5745,4.5808,4.5836,4.5859,4.6029,4.5911,4.5908,4.5948,4.5936,4.5971,4.5972,4.5952,4.6083,4.6104,4.6192,4.6028,4.6415,4.6427,4.6438,4.6566,4.6591,4.6612,0,0,0,0,0,4.571,4.5843,4.5812,4.5834,4.5937,4.6034,4.6048,4.6022,4.5955,4.6019,4.6024,4.5971,4.6169,4.6096,4.6119,4.6211,4.641,4.6424,4.6437,4.6555,4.6586,4.6611,0,0,0,0,0,0,4.5827,4.5846,4.5812,4.5958,4.5995,4.6017,4.6097,4.6055,4.6112,4.6099,4.6065,4.6074,4.6206,4.622,4.6139,4.6374,4.6279,4.6298,4.636,4.6389,4.6412,4.6407,4.6036,0,0,0,0,0,4.5869,4.5946,4.5959,4.6088,4.6108,4.6099,4.6141,4.6118,4.6155,4.617,4.6184,4.6223,4.6294,4.6342,4.6408,4.6566,4.6573,4.664,4.6663,4.6682,4.67,4.6786,4.6817,4.649,4.649,4.6489,0,0,4.5959,4.5979,4.603,4.6112,4.6138,4.6219,4.6113,4.6203,4.6264,4.6184,4.6303,4.6314,4.6355,4.6497,4.656,4.6513,4.6792,4.67,4.6715,4.6723,4.6804,4.6835,4.6862,4.6499,4.6497,4.6496,0,0,4.6165,4.6187,4.6297,4.6325,4.6365,4.6358,4.6385,4.6413,4.6418,4.6535,4.6478,4.6548,4.6671,4.6703,4.6735,4.6951,4.6905,4.6973,4.7096,4.718,4.7206,4.7229,4.7308,4.7336,4.699,4.6991,4.6991,0,4.6272,4.6391,4.6359,4.6453,4.6491,4.6422,4.6533,4.6562,4.6622,4.665,4.6596,4.6749,4.6771,4.692,4.6973,4.7001,4.7031,4.6971,4.7204,4.7227,4.7248,4.7323,4.7353,4.6999,4.6998,4.6997,4.6996,0,4.6521,4.6605,4.6689,4.6749,4.6796,4.6898,4.6882,4.6933,4.6905,4.6904,4.7026,4.7049,4.7119,4.7152,4.7126,4.7298,4.7268,4.721,4.7114,4.7288,4.7358,4.7386,4.7011,4.7008,4.7005,4.7003,0,0,4.6807,4.6845,4.6877,4.6904,4.6942,4.7007,4.7106,4.7173,4.7219,4.7262,4.7346,4.745,4.7397,4.7433,4.741,4.7483,4.7655,4.7416,4.7416,4.7461,4.7848,4.7894,4.7928,4.7623,4.7628,4.7632,4.7845,0,4.7014,4.7186,4.7159,4.7326,4.7403,4.7337,4.7424,4.7457,4.7458,4.7524,4.7525,4.7601,4.7523,4.7545,4.7614,4.762,4.7733,4.7603,4.7702,4.7706,4.7697,4.7964,4.8013,4.8213,4.7872,4.7877,4.788,0,4.7281,4.7333,4.7508,4.7534,4.7566,4.7644,4.7704,4.7767,4.7804,4.7799,4.784,4.7803,4.7902,4.7802,4.7939,4.7852,4.789,4.7898,4.7905,4.7916,4.7806,4.7984,4.8275,4.8307,4.7922,4.7919,4.7916,0,4.7475,4.7588,4.7708,4.7732,4.7765,4.7822,4.7839,4.7869,4.7911,4.7963,4.7991,4.8053,4.8089,4.8139,4.8119,4.8048,4.8261,4.8159,4.8262,4.8263,4.8313,4.831,4.8617,4.8333,4.8332,4.8331,4.8331,0,4.7711,4.7822,4.7795,4.7869,4.799,4.7957,4.8078,4.8087,4.8114,4.8189,4.8134,4.8205,4.8174,4.8243,4.8228,4.8345,4.8361,4.8361,4.8357,4.8368,4.8369,4.8395,4.8382,4.8339,4.8338,4.8336,4.8335,0,4.795,4.7937,4.8063,4.8083,4.8091,4.818,4.8197,4.8266,4.8262,4.8357,4.8377,4.8372,4.845,4.8435,4.8521,4.8511,4.8658,4.8635,4.8647,4.8642,4.8747,4.8738,4.9083,4.9128,4.8812,4.8815,4.8818,0,4.8104,4.8187,4.8216,4.8262,4.8282,4.8357,4.8399,4.8369,4.8416,4.8463,4.8527,4.86,4.8658,4.8786,4.879,4.8856,4.8835,4.8951,4.8845,4.8854,4.884,4.8837,4.8846,4.8974,4.8978,4.8981,4.8983,0,4.838,4.8368,4.8432,4.8493,4.8546,4.8593,4.8634,4.8675,4.8648,4.8703,4.8783,4.8827,4.8915,4.8989,4.905,4.9067,4.9022,4.9016,4.9043,4.9058,4.9062,4.9064,4.8708,4.9009,4.9006,4.9004,4.9003,4.9002,4.8583,4.8653,4.8685,4.8757,4.8785,4.8825,4.8891,4.8895,4.896,4.9029,4.9007,4.9098,4.9131,4.9208,4.9232,4.9302,4.9259,4.9299,4.9309,4.932,4.9334,4.9048,4.9313,4.9312,4.9311,4.9311,4.931,0,4.8858,4.8874,4.894,4.9,4.9057,4.9007,4.905,4.9102,4.9182,4.9216,4.9274,4.9365,4.9436,4.9444,4.9511,4.9567,4.9548,4.9586,4.9583,4.9588,4.9368,4.9338,4.96,4.96,4.96,4.96,4.96,4.96,4.9008,4.9126,4.9118,4.9249,4.9264,4.9352,4.9381,4.9418,4.9445,4.955,4.9608,4.9612,4.9637,4.9705,4.9768,4.9768,4.9797,4.9844,4.9837,4.9632,4.9603,4.9576,4.9548,4.9849,4.985,5.0051,5.0053,5.0054]},{"header":{"parameterUnit":"m.s-1","parameterCategory":1,"la1":30.2991,"la2":30.254,"lo1":-89.0895,"lo2":-89.0444,"dy":0.0017,"dx":0.0017,"nx":28,"ny":28,"refTime":"2025-07-27T21:00:00:Z","depth":0,"parameterNumber":3,"parameterNumberName":"V-component_of_WINDS"},"data":[0,0,0,0,0,0,0,0,0,0,0,0,0,0,0,0,0,0,0,0,0,0,0,0,0,0,0,0,0,0,0,0,0,0,0,0,0,0,0,0,0,0,0,0,0,0,0,0,0,0,0,0,0,0,0,0,0,0,-0.0489,-0.0489,0,-0.0573,-0.0574,-0.0575,-0.0614,-0.0614,-0.0614,-0.0614,-0.0703,-0.0705,-0.0708,0,0,0,0,0,0,0,0,0,0,0,0,0,-0.0364,-0.0366,-0.0488,-0.049,-0.0491,-0.0573,-0.0574,-0.0575,-0.0614,-0.0614,-0.0614,-0.0614,-0.0702,-0.0705,-0.0708,0,0,0,0,0,0,0,0,0,0,0,0,0,-0.043,-0.0367,-0.0488,-0.052,-0.0523,-0.0573,-0.0574,-0.0576,-0.0614,-0.0614,-0.0614,-0.0614,-0.0701,-0.0705,-0.0708,-0.0733,0,0,-0.0719,-0.0721,0,0,0,0,0,0,0,0,-0.0426,-0.0435,-0.0514,-0.0518,-0.0522,-0.0583,-0.0563,-0.0629,-0.0614,-0.058,-0.0614,-0.0614,-0.0663,-0.067,-0.0686,-0.0737,-0.0741,-0.072,-0.0722,-0.0723,-0.0724,0,0,0,0,0,0,0,-0.0422,-0.0431,-0.0522,-0.0515,-0.052,-0.0531,-0.054,-0.0576,-0.0621,-0.0583,-0.0586,-0.0595,-0.0665,-0.0682,-0.0688,-0.0743,-0.072,-0.0723,-0.0725,-0.0727,-0.0822,-0.0822,0,0,0,0,0,0,-0.0412,-0.0427,-0.0519,-0.0525,-0.0473,-0.0533,-0.0544,-0.0563,-0.0621,-0.0629,-0.0595,-0.0597,-0.0676,-0.0684,-0.0692,-0.0727,-0.0723,-0.0727,-0.0729,-0.0821,-0.0822,-0.0822,0,0,0,0,0,0,-0.0409,-0.0419,-0.0516,-0.0477,-0.049,-0.0535,-0.0557,-0.0565,-0.0582,-0.063,-0.0639,-0.0604,-0.0676,-0.0687,-0.0723,-0.073,-0.0729,-0.0732,-0.0821,-0.0822,-0.0822,-0.0796,0,0,0,0,0,0,-0.0405,-0.0418,-0.0427,-0.0477,-0.0492,-0.0545,-0.0558,-0.0567,-0.0588,-0.0591,-0.0641,-0.0649,-0.0677,-0.0717,-0.0727,-0.0736,-0.0735,-0.0821,-0.0821,-0.0822,-0.0796,-0.0796,-0.0795,0,0,0,0,0,-0.04,-0.0416,-0.0427,-0.0438,-0.0504,-0.0545,-0.0554,-0.0585,-0.0589,-0.0599,-0.063,-0.0648,-0.0728,-0.0721,-0.0732,-0.0742,-0.082,-0.0821,-0.0822,-0.0797,-0.0796,-0.0795,0,0,0,0,0,0,-0.0367,-0.0423,-0.0436,-0.0468,-0.0502,-0.0551,-0.0565,-0.0583,-0.0616,-0.0617,-0.0655,-0.0666,-0.07,-0.0724,-0.0715,-0.077,-0.0776,-0.0779,-0.0753,-0.0753,-0.0752,-0.0746,-0.0738,0,0,0,0,0,-0.0363,-0.039,-0.0439,-0.0463,-0.0479,-0.0519,-0.0538,-0.0559,-0.0596,-0.061,-0.0644,-0.0679,-0.0713,-0.0734,-0.0767,-0.08,-0.0813,-0.0813,-0.0812,-0.0811,-0.0813,-0.0835,-0.0836,-0.0825,-0.0825,-0.0825,0,0,-0.0355,-0.039,-0.0405,-0.0457,-0.0485,-0.0514,-0.053,-0.056,-0.0583,-0.0615,-0.0652,-0.0678,-0.072,-0.0755,-0.0773,-0.0777,-0.0819,-0.0812,-0.0811,-0.0814,-0.0836,-0.0837,-0.0838,-0.0825,-0.0825,-0.0825,0,0,-0.0357,-0.0385,-0.0409,-0.0437,-0.048,-0.0507,-0.0513,-0.056,-0.0579,-0.0617,-0.0642,-0.067,-0.0726,-0.0756,-0.0778,-0.0794,-0.0812,-0.0803,-0.0799,-0.082,-0.0821,-0.0822,-0.083,-0.0832,-0.0805,-0.0805,-0.0805,0,-0.0343,-0.0387,-0.0419,-0.0448,-0.0471,-0.0501,-0.0527,-0.0553,-0.0605,-0.0621,-0.0624,-0.0697,-0.0728,-0.0772,-0.0776,-0.0792,-0.0802,-0.0798,-0.0818,-0.082,-0.0821,-0.0829,-0.0831,-0.0804,-0.0804,-0.0805,-0.0805,0,-0.0368,-0.0399,-0.0413,-0.0462,-0.0487,-0.0514,-0.0552,-0.0573,-0.0593,-0.062,-0.0659,-0.0697,-0.074,-0.0752,-0.0771,-0.0799,-0.0801,-0.0811,-0.0817,-0.0821,-0.0829,-0.0832,-0.0803,-0.0803,-0.0803,-0.0804,0,0,-0.035,-0.0418,-0.0423,-0.0447,-0.0497,-0.0522,-0.0551,-0.0592,-0.0611,-0.0646,-0.0673,-0.0721,-0.0731,-0.0757,-0.078,-0.0798,-0.0811,-0.0807,-0.0808,-0.0808,-0.0847,-0.084,-0.0843,-0.0823,-0.0823,-0.0824,-0.0844,0,-0.036,-0.0413,-0.0444,-0.0485,-0.0515,-0.0545,-0.0572,-0.0606,-0.0633,-0.0663,-0.0693,-0.0727,-0.0737,-0.0753,-0.0772,-0.0805,-0.082,-0.0804,-0.085,-0.0852,-0.084,-0.0847,-0.0839,-0.0856,-0.0847,-0.0848,-0.0848,0,-0.0378,-0.0413,-0.0457,-0.0506,-0.052,-0.0542,-0.0584,-0.0612,-0.0653,-0.0671,-0.07,-0.0724,-0.0759,-0.0762,-0.0811,-0.08,-0.0821,-0.084,-0.0842,-0.0848,-0.0851,-0.0855,-0.0862,-0.0865,-0.0853,-0.0853,-0.0852,0,-0.0363,-0.042,-0.0455,-0.0474,-0.0531,-0.0547,-0.0572,-0.0613,-0.0636,-0.0673,-0.0689,-0.073,-0.0752,-0.0784,-0.0819,-0.0817,-0.0865,-0.0871,-0.0883,-0.0882,-0.0893,-0.0892,-0.0905,-0.0904,-0.0903,-0.0903,-0.0903,0,-0.0371,-0.0397,-0.0449,-0.047,-0.0502,-0.0538,-0.0568,-0.0596,-0.0632,-0.0661,-0.0689,-0.0715,-0.0759,-0.0792,-0.0819,-0.0857,-0.0867,-0.0884,-0.0891,-0.0882,-0.088,-0.0897,-0.0897,-0.0904,-0.0904,-0.0904,-0.0904,0,-0.0359,-0.0395,-0.0435,-0.0486,-0.05,-0.0521,-0.0566,-0.0589,-0.0617,-0.0653,-0.0664,-0.0709,-0.0749,-0.0787,-0.084,-0.0859,-0.0898,-0.0906,-0.0884,-0.0888,-0.0899,-0.0898,-0.0925,-0.0931,-0.0924,-0.0924,-0.0924,0,-0.0363,-0.0384,-0.0438,-0.0459,-0.0483,-0.0516,-0.0541,-0.0578,-0.0603,-0.0652,-0.067,-0.0712,-0.0748,-0.081,-0.0849,-0.0891,-0.0902,-0.0908,-0.0908,-0.0899,-0.0904,-0.0903,-0.0907,-0.0908,-0.0908,-0.0907,-0.0907,0,-0.0366,-0.0383,-0.0416,-0.0457,-0.0486,-0.052,-0.0555,-0.0571,-0.0615,-0.0642,-0.0683,-0.0711,-0.0766,-0.0808,-0.0855,-0.0882,-0.0903,-0.0907,-0.0913,-0.0904,-0.0891,-0.09,-0.0884,-0.0906,-0.0907,-0.0907,-0.0907,-0.0907,-0.0363,-0.0384,-0.0426,-0.0463,-0.0494,-0.0526,-0.0551,-0.0583,-0.0618,-0.0666,-0.0686,-0.0728,-0.0771,-0.0836,-0.0863,-0.0898,-0.0903,-0.091,-0.0912,-0.0914,-0.0913,-0.0884,-0.0906,-0.0907,-0.0907,-0.0907,-0.0907,0,-0.0369,-0.0398,-0.0432,-0.048,-0.0511,-0.0527,-0.0567,-0.0592,-0.0628,-0.0666,-0.0701,-0.075,-0.0792,-0.0834,-0.0879,-0.0899,-0.091,-0.091,-0.0909,-0.0916,-0.0905,-0.0897,-0.09,-0.09,-0.09,-0.09,-0.09,-0.09,-0.0376,-0.0413,-0.0435,-0.0489,-0.0518,-0.0559,-0.0581,-0.0612,-0.0643,-0.0696,-0.0731,-0.0758,-0.0799,-0.0847,-0.0887,-0.0899,-0.0915,-0.0912,-0.0926,-0.0916,-0.0916,-0.0916,-0.0909,-0.0915,-0.0915,-0.0934,-0.0935,-0.0935]}]]